Wetterdaten: aktuell Dienstag, 18.05.2021 22:20
Datum Zeit Temp. I. Temp. A. Feuchte A. Luftdruck Regen Wind Richtung Richtung Sonnenschein Taupunkt Windchill Windben
18.05.2021 22:20 22,1 C 10,4 C 57 % 1010,7 hPa 0,0 l/m 5,1 km/h (1 Bft) W 270 0 min 2,3 C 10,4 C 4,7 km/h (1 Bft)
18.05.2021 22:10 22,1 C 10,9 C 57 % 1010,6 hPa 0,0 l/m 6,8 km/h (2 Bft) W 270 0 min 2,7 C 10,6 C 8,7 km/h (2 Bft)
18.05.2021 22:00 22,2 C 11,3 C 56 % 1010,6 hPa 0,0 l/m 6,6 km/h (2 Bft) W-NW 292 0 min 2,8 C 11,2 C 4,2 km/h (1 Bft)
18.05.2021 21:50 22,2 C 11,5 C 56 % 1009,8 hPa 0,0 l/m 6,0 km/h (2 Bft) W-SW 247 0 min 3,0 C 11,5 C 8,4 km/h (2 Bft)
18.05.2021 21:40 22,2 C 11,5 C 57 % 1009,8 hPa 0,0 l/m 3,2 km/h (1 Bft) W 270 0 min 3,3 C 11,5 C 6,3 km/h (2 Bft)
18.05.2021 21:30 22,2 C 11,7 C 56 % 1010,0 hPa 0,0 l/m 1,8 km/h (1 Bft) NW 315 0 min 3,2 C 11,7 C 2,9 km/h (1 Bft)
18.05.2021 21:20 22,2 C 11,6 C 55 % 1010,0 hPa 0,0 l/m 2,4 km/h (1 Bft) W 270 0 min 2,9 C 11,6 C 3,2 km/h (1 Bft)
18.05.2021 21:10 22,2 C 11,5 C 54 % 1009,9 hPa 0,0 l/m 2,3 km/h (1 Bft) W 270 0 min 2,5 C 11,5 C 3,4 km/h (1 Bft)
18.05.2021 21:00 22,2 C 11,4 C 53 % 1009,9 hPa 0,0 l/m 1,4 km/h (1 Bft) W 270 0 min 2,2 C 11,4 C 2,1 km/h (1 Bft)
18.05.2021 20:50 22,2 C 11,7 C 52 % 1009,8 hPa 0,0 l/m 1,9 km/h (1 Bft) W 270 0 min 2,2 C 11,7 C 2,7 km/h (1 Bft)
18.05.2021 20:40 22,2 C 12,2 C 51 % 1009,8 hPa 0,0 l/m 1,9 km/h (1 Bft) SW 225 0 min 2,4 C 12,2 C 3,1 km/h (1 Bft)
18.05.2021 20:30 22,2 C 12,4 C 51 % 1009,7 hPa 0,0 l/m 1,8 km/h (1 Bft) W-SW 247 0 min 2,6 C 12,4 C 3,1 km/h (1 Bft)
18.05.2021 20:20 22,2 C 12,6 C 50 % 1009,7 hPa 0,0 l/m 1,4 km/h (1 Bft) W-SW 247 0 min 2,5 C 12,6 C 2,7 km/h (1 Bft)
18.05.2021 20:10 22,2 C 12,9 C 49 % 1009,7 hPa 0,0 l/m 0,8 km/h (0 Bft) W 270 0 min 2,5 C 12,9 C 3,2 km/h (1 Bft)
18.05.2021 20:00 22,1 C 12,9 C 49 % 1009,7 hPa 0,0 l/m 1,1 km/h (1 Bft) W-SW 247 0 min 2,5 C 12,9 C 3,4 km/h (1 Bft)
18.05.2021 19:50 22,1 C 13,0 C 47 % 1009,7 hPa 0,0 l/m 3,7 km/h (1 Bft) W-SW 247 0 min 2,0 C 13,0 C 3,9 km/h (1 Bft)
18.05.2021 19:40 22,2 C 13,4 C 46 % 1009,7 hPa 0,0 l/m 6,0 km/h (2 Bft) S 180 0 min 2,0 C 13,4 C 3,5 km/h (1 Bft)
18.05.2021 19:30 22,2 C 14,1 C 46 % 1009,4 hPa 0,0 l/m 5,6 km/h (1 Bft) W 270 0 min 2,7 C 14,1 C 9,3 km/h (2 Bft)
18.05.2021 19:20 22,2 C 14,4 C 46 % 1009,4 hPa 0,0 l/m 4,3 km/h (1 Bft) SO 135 0 min 2,9 C 14,4 C 7,6 km/h (2 Bft)
18.05.2021 19:10 22,2 C 14,7 C 45 % 1009,4 hPa 0,0 l/m 3,2 km/h (1 Bft) W-SW 247 0 min 2,9 C 14,7 C 4,2 km/h (1 Bft)
18.05.2021 19:00 22,2 C 14,9 C 44 % 1009,4 hPa 0,0 l/m 2,7 km/h (1 Bft) W-NW 292 0 min 2,8 C 14,9 C 4,5 km/h (1 Bft)
18.05.2021 18:50 22,4 C 15,1 C 43 % 1009,8 hPa 0,0 l/m 3,7 km/h (1 Bft) NW 315 0 min 2,6 C 15,1 C 3,2 km/h (1 Bft)
18.05.2021 18:40 22,4 C 15,3 C 42 % 1009,8 hPa 0,0 l/m 5,8 km/h (2 Bft) W-SW 247 0 min 2,5 C 15,3 C 6,1 km/h (2 Bft)
18.05.2021 18:30 22,5 C 15,7 C 42 % 1009,6 hPa 0,0 l/m 4,7 km/h (1 Bft) W 270 0 min 2,8 C 15,7 C 10,5 km/h (2 Bft)
18.05.2021 18:20 22,5 C 16,6 C 40 % 1009,6 hPa 0,0 l/m 4,8 km/h (1 Bft) W 270 10 min 2,9 C 16,6 C 4,8 km/h (1 Bft)
18.05.2021 18:10 22,6 C 16,0 C 41 % 1009,5 hPa 0,0 l/m 4,8 km/h (1 Bft) W-SW 247 0 min 2,8 C 16,0 C 4,5 km/h (1 Bft)
18.05.2021 18:00 22,6 C 15,8 C 41 % 1009,5 hPa 0,0 l/m 6,0 km/h (2 Bft) NW 315 10 min 2,6 C 15,8 C 5,5 km/h (1 Bft)
18.05.2021 17:50 22,6 C 16,1 C 39 % 1009,5 hPa 0,0 l/m 5,5 km/h (1 Bft) NW 315 0 min 2,1 C 16,1 C 5,3 km/h (1 Bft)
18.05.2021 17:40 22,6 C 15,9 C 39 % 1009,5 hPa 0,0 l/m 6,6 km/h (2 Bft) W-NW 292 0 min 2,0 C 15,8 C 3,4 km/h (1 Bft)
18.05.2021 17:30 22,7 C 16,4 C 37 % 1009,6 hPa 0,0 l/m 7,7 km/h (2 Bft) SW 225 10 min 1,7 C 15,7 C 16,9 km/h (3 Bft)
18.05.2021 17:20 22,7 C 16,5 C 38 % 1009,6 hPa 0,0 l/m 7,6 km/h (2 Bft) W-SW 247 10 min 2,1 C 15,9 C 10,9 km/h (2 Bft)
18.05.2021 17:10 22,6 C 16,4 C 40 % 1009,3 hPa 0,0 l/m 6,8 km/h (2 Bft) W 270 0 min 2,8 C 16,2 C 12,7 km/h (3 Bft)
18.05.2021 17:00 22,7 C 16,0 C 39 % 1009,3 hPa 0,0 l/m 7,4 km/h (2 Bft) W-NW 292 0 min 2,1 C 15,5 C 12,4 km/h (3 Bft)
18.05.2021 16:50 22,8 C 16,7 C 36 % 1009,8 hPa 0,0 l/m 8,9 km/h (2 Bft) W-SW 247 0 min 1,6 C 15,5 C 10,8 km/h (2 Bft)
18.05.2021 16:40 22,8 C 16,6 C 36 % 1009,8 hPa 0,0 l/m 8,0 km/h (2 Bft) W-SW 247 0 min 1,5 C 15,8 C 10,1 km/h (2 Bft)
18.05.2021 16:30 22,8 C 16,4 C 37 % 1009,8 hPa 0,0 l/m 6,6 km/h (2 Bft) W-NW 292 0 min 1,7 C 16,3 C 9,5 km/h (2 Bft)
18.05.2021 16:20 23,0 C 16,5 C 38 % 1009,8 hPa 0,0 l/m 7,2 km/h (2 Bft) W-SW 247 0 min 2,1 C 16,1 C 7,4 km/h (2 Bft)
18.05.2021 16:10 23,0 C 16,7 C 37 % 1009,5 hPa 0,0 l/m 10,1 km/h (2 Bft) W-SW 247 0 min 1,9 C 15,0 C 10,6 km/h (2 Bft)
18.05.2021 16:00 23,1 C 17,4 C 35 % 1009,5 hPa 0,0 l/m 9,5 km/h (2 Bft) W 270 10 min 1,8 C 16,0 C 15,0 km/h (3 Bft)
18.05.2021 15:50 23,0 C 17,7 C 34 % 1009,7 hPa 0,0 l/m 10,6 km/h (2 Bft) W-SW 247 10 min 1,6 C 15,9 C 12,9 km/h (3 Bft)
18.05.2021 15:40 23,0 C 18,1 C 38 % 1009,7 hPa 0,0 l/m 8,4 km/h (2 Bft) W-SW 247 10 min 3,6 C 17,2 C 10,1 km/h (2 Bft)
18.05.2021 15:30 22,9 C 17,5 C 40 % 1009,4 hPa 0,0 l/m 7,7 km/h (2 Bft) W 270 10 min 3,8 C 16,9 C 11,3 km/h (2 Bft)
18.05.2021 15:20 22,8 C 16,8 C 41 % 1009,4 hPa 0,0 l/m 8,7 km/h (2 Bft) W 270 10 min 3,5 C 15,7 C 14,6 km/h (3 Bft)
18.05.2021 15:10 22,7 C 16,8 C 38 % 1009,4 hPa 0,0 l/m 10,0 km/h (2 Bft) W 270 10 min 2,4 C 15,1 C 10,0 km/h (2 Bft)
18.05.2021 15:00 22,6 C 16,9 C 41 % 1009,4 hPa 0,0 l/m 9,3 km/h (2 Bft) S 180 10 min 3,6 C 15,5 C 7,4 km/h (2 Bft)
18.05.2021 14:50 22,5 C 17,1 C 39 % 1009,4 hPa 0,0 l/m 8,0 km/h (2 Bft) NW 315 10 min 3,0 C 16,3 C 10,1 km/h (2 Bft)
18.05.2021 14:40 22,4 C 17,9 C 40 % 1009,4 hPa 0,0 l/m 8,5 km/h (2 Bft) W-NW 292 0 min 4,1 C 16,9 C 17,1 km/h (3 Bft)
18.05.2021 14:30 22,3 C 16,7 C 40 % 1009,3 hPa 0,0 l/m 6,8 km/h (2 Bft) NW 315 0 min 3,0 C 16,5 C 7,6 km/h (2 Bft)
18.05.2021 14:20 22,3 C 15,7 C 45 % 1009,3 hPa 0,0 l/m 6,6 km/h (2 Bft) NW 315 0 min 3,8 C 15,6 C 9,5 km/h (2 Bft)
18.05.2021 14:10 22,2 C 15,2 C 45 % 1009,1 hPa 0,0 l/m 7,9 km/h (2 Bft) W 270 0 min 3,4 C 14,4 C 9,7 km/h (2 Bft)
18.05.2021 14:00 22,3 C 15,3 C 48 % 1009,1 hPa 0,0 l/m 8,2 km/h (2 Bft) W 270 0 min 4,4 C 14,3 C 15,3 km/h (3 Bft)
18.05.2021 13:50 22,2 C 15,7 C 49 % 1009,2 hPa 0,0 l/m 6,6 km/h (2 Bft) NW 315 0 min 5,0 C 15,6 C 7,9 km/h (2 Bft)
18.05.2021 13:40 22,1 C 14,8 C 50 % 1009,2 hPa 0,0 l/m 7,2 km/h (2 Bft) W-NW 292 0 min 4,5 C 14,3 C 7,4 km/h (2 Bft)
18.05.2021 13:30 22,2 C 15,0 C 49 % 1008,9 hPa 0,0 l/m 8,4 km/h (2 Bft) NW 315 0 min 4,4 C 13,9 C 11,4 km/h (2 Bft)
18.05.2021 13:20 22,1 C 15,2 C 46 % 1008,9 hPa 0,0 l/m 9,2 km/h (2 Bft) W-SW 247 0 min 3,7 C 13,7 C 8,7 km/h (2 Bft)
18.05.2021 13:10 22,1 C 15,6 C 52 % 1009,4 hPa 0,0 l/m 7,6 km/h (2 Bft) W-NW 292 0 min 5,8 C 14,9 C 8,5 km/h (2 Bft)
18.05.2021 13:00 22,0 C 15,2 C 55 % 1009,4 hPa 0,0 l/m 6,9 km/h (2 Bft) W 270 0 min 6,2 C 14,9 C 9,5 km/h (2 Bft)
18.05.2021 12:49 21,9 C 14,8 C 56 % 1009,4 hPa 0,0 l/m 6,6 km/h (2 Bft) W-SW 247 0 min 6,1 C 14,7 C 9,5 km/h (2 Bft)
18.05.2021 12:40 21,8 C 14,3 C 58 % 1009,4 hPa 0,0 l/m 5,1 km/h (1 Bft) W-SW 247 0 min 6,2 C 14,3 C 10,5 km/h (2 Bft)
18.05.2021 12:30 21,9 C 13,5 C 59 % 1009,4 hPa 0,0 l/m 7,2 km/h (2 Bft) NW 315 0 min 5,6 C 13,0 C 6,1 km/h (2 Bft)
18.05.2021 12:20 21,9 C 12,9 C 64 % 1009,4 hPa 0,0 l/m 8,9 km/h (2 Bft) W-NW 292 0 min 6,3 C 11,4 C 13,2 km/h (3 Bft)
18.05.2021 12:10 21,9 C 13,3 C 60 % 1009,1 hPa 0,7 l/m 8,5 km/h (2 Bft) SW 225 0 min 5,7 C 12,0 C 8,4 km/h (2 Bft)
18.05.2021 12:00 21,9 C 13,6 C 59 % 1009,1 hPa 0,0 l/m 10,0 km/h (2 Bft) NW 315 0 min 5,7 C 11,6 C 10,9 km/h (2 Bft)
18.05.2021 11:50 21,8 C 13,9 C 64 % 1009,0 hPa 0,0 l/m 7,9 km/h (2 Bft) W-SW 247 0 min 7,2 C 13,0 C 11,6 km/h (2 Bft)
18.05.2021 11:40 21,7 C 12,7 C 68 % 1009,0 hPa 0,0 l/m 6,4 km/h (2 Bft) W 270 0 min 6,9 C 12,7 C 4,3 km/h (1 Bft)
18.05.2021 11:30 21,7 C 11,5 C 69 % 1009,1 hPa 0,0 l/m 4,8 km/h (1 Bft) W 270 0 min 6,0 C 11,5 C 21,6 km/h (4 Bft)
18.05.2021 11:20 21,7 C 11,3 C 66 % 1009,1 hPa 0,0 l/m 6,8 km/h (2 Bft) S 180 0 min 5,2 C 11,0 C 3,4 km/h (1 Bft)
18.05.2021 11:10 21,7 C 11,7 C 63 % 1008,8 hPa 0,0 l/m 8,7 km/h (2 Bft) NW 315 0 min 4,9 C 10,2 C 10,1 km/h (2 Bft)
18.05.2021 11:00 21,7 C 13,0 C 65 % 1008,8 hPa 0,0 l/m 4,5 km/h (1 Bft) W 270 0 min 6,6 C 13,0 C 11,4 km/h (2 Bft)
18.05.2021 10:50 21,7 C 11,9 C 67 % 1008,6 hPa 1,4 l/m 6,8 km/h (2 Bft) W-SW 247 0 min 6,0 C 11,6 C 7,2 km/h (2 Bft)
18.05.2021 10:40 21,7 C 11,8 C 66 % 1008,6 hPa 0,0 l/m 5,5 km/h (1 Bft) W 270 0 min 5,7 C 11,8 C 6,4 km/h (2 Bft)
18.05.2021 10:30 21,8 C 12,4 C 63 % 1008,5 hPa 0,7 l/m 5,6 km/h (1 Bft) W-NW 292 0 min 5,6 C 12,4 C 19,3 km/h (3 Bft)
18.05.2021 10:20 21,8 C 13,1 C 59 % 1008,5 hPa 0,0 l/m 9,7 km/h (2 Bft) W-NW 292 0 min 5,3 C 11,2 C 10,9 km/h (2 Bft)
18.05.2021 10:10 21,7 C 14,4 C 55 % 1008,2 hPa 0,0 l/m 8,4 km/h (2 Bft) W-NW 292 0 min 5,5 C 13,3 C 19,2 km/h (3 Bft)
18.05.2021 10:00 21,6 C 12,9 C 59 % 1008,2 hPa 0,0 l/m 9,3 km/h (2 Bft) W 270 0 min 5,1 C 11,2 C 6,1 km/h (2 Bft)
18.05.2021 09:50 21,6 C 13,3 C 59 % 1008,2 hPa 0,0 l/m 6,9 km/h (2 Bft) W 270 0 min 5,5 C 13,0 C 13,0 km/h (3 Bft)
18.05.2021 09:40 21,6 C 12,7 C 65 % 1008,2 hPa 0,0 l/m 6,1 km/h (2 Bft) W-SW 247 0 min 6,3 C 12,7 C 9,8 km/h (2 Bft)
18.05.2021 09:20 21,5 C 12,1 C 65 % 1007,6 hPa 0,0 l/m 6,9 km/h (2 Bft) W-SW 247 0 min 5,7 C 11,8 C 8,5 km/h (2 Bft)
18.05.2021 09:10 21,5 C 11,6 C 67 % 1007,9 hPa 0,0 l/m 6,4 km/h (2 Bft) W 270 0 min 5,7 C 11,6 C 10,8 km/h (2 Bft)
18.05.2021 09:00 21,5 C 11,2 C 66 % 1007,9 hPa 0,0 l/m 6,3 km/h (2 Bft) S-SW 202 0 min 5,1 C 11,2 C 4,3 km/h (1 Bft)
18.05.2021 08:50 21,5 C 11,6 C 65 % 1007,6 hPa 0,0 l/m 6,9 km/h (2 Bft) W-SW 247 0 min 5,2 C 11,3 C 4,8 km/h (1 Bft)
18.05.2021 08:40 21,6 C 12,1 C 62 % 1007,6 hPa 0,0 l/m 6,4 km/h (2 Bft) W-SW 247 0 min 5,0 C 12,1 C 8,5 km/h (2 Bft)
18.05.2021 08:30 21,5 C 12,2 C 62 % 1007,3 hPa 0,0 l/m 6,9 km/h (2 Bft) W-SW 247 0 min 5,1 C 11,9 C 10,3 km/h (2 Bft)
18.05.2021 08:20 21,5 C 11,8 C 63 % 1007,3 hPa 0,0 l/m 6,1 km/h (2 Bft) W 270 0 min 5,0 C 11,8 C 7,6 km/h (2 Bft)
18.05.2021 08:10 21,5 C 11,8 C 62 % 1007,1 hPa 0,0 l/m 5,3 km/h (1 Bft) SW 225 0 min 4,8 C 11,8 C 6,3 km/h (2 Bft)
18.05.2021 08:00 21,5 C 12,1 C 61 % 1007,1 hPa 0,0 l/m 7,6 km/h (2 Bft) W-NW 292 0 min 4,8 C 11,3 C 14,0 km/h (3 Bft)
18.05.2021 07:50 21,4 C 12,1 C 62 % 1006,9 hPa 0,0 l/m 6,1 km/h (2 Bft) W-SW 247 0 min 5,0 C 12,1 C 17,5 km/h (3 Bft)
18.05.2021 07:40 21,4 C 11,7 C 62 % 1006,9 hPa 0,0 l/m 5,3 km/h (1 Bft) W 270 0 min 4,7 C 11,7 C 5,5 km/h (1 Bft)
18.05.2021 07:30 21,4 C 11,9 C 62 % 1007,2 hPa 0,0 l/m 5,1 km/h (1 Bft) NW 315 0 min 4,9 C 11,9 C 5,8 km/h (2 Bft)
18.05.2021 07:20 21,5 C 12,3 C 61 % 1007,2 hPa 0,0 l/m 3,1 km/h (1 Bft) W 270 0 min 5,0 C 12,3 C 6,1 km/h (2 Bft)
18.05.2021 07:10 21,8 C 11,8 C 63 % 1007,1 hPa 0,0 l/m 3,7 km/h (1 Bft) W-SW 247 0 min 5,0 C 11,8 C 11,1 km/h (2 Bft)
18.05.2021 07:00 21,7 C 11,5 C 62 % 1007,1 hPa 0,0 l/m 4,7 km/h (1 Bft) W-SW 247 0 min 4,5 C 11,5 C 9,8 km/h (2 Bft)
18.05.2021 06:50 21,6 C 11,8 C 63 % 1006,9 hPa 0,0 l/m 3,5 km/h (1 Bft) W-NW 292 0 min 5,0 C 11,8 C 3,7 km/h (1 Bft)
18.05.2021 06:40 21,6 C 11,1 C 65 % 1006,9 hPa 0,0 l/m 3,5 km/h (1 Bft) W 270 0 min 4,8 C 11,1 C 5,5 km/h (1 Bft)
18.05.2021 06:30 21,6 C 10,3 C 66 % 1006,6 hPa 0,0 l/m 4,0 km/h (1 Bft) O 90 0 min 4,2 C 10,3 C 4,0 km/h (1 Bft)
18.05.2021 06:20 21,6 C 10,2 C 67 % 1006,6 hPa 0,0 l/m 4,3 km/h (1 Bft) W 270 0 min 4,4 C 10,2 C 5,1 km/h (1 Bft)
18.05.2021 06:10 21,6 C 9,7 C 67 % 1006,6 hPa 0,0 l/m 2,7 km/h (1 Bft) W 270 0 min 3,9 C 9,7 C 4,3 km/h (1 Bft)
18.05.2021 06:00 21,6 C 9,4 C 67 % 1006,6 hPa 0,0 l/m 2,4 km/h (1 Bft) W-SW 247 0 min 3,6 C 9,4 C 3,1 km/h (1 Bft)
18.05.2021 05:50 21,6 C 9,1 C 67 % 1006,8 hPa 0,0 l/m 1,0 km/h (0 Bft) W-SW 247 0 min 3,3 C 9,1 C 5,1 km/h (1 Bft)
18.05.2021 05:40 21,6 C 8,8 C 69 % 1006,8 hPa 0,0 l/m 1,8 km/h (1 Bft) W-SW 247 0 min 3,4 C 8,8 C 1,9 km/h (1 Bft)
18.05.2021 05:30 21,6 C 8,3 C 69 % 1006,2 hPa 0,0 l/m 2,6 km/h (1 Bft) W 270 0 min 3,0 C 8,3 C 2,7 km/h (1 Bft)
18.05.2021 05:20 21,6 C 7,8 C 70 % 1006,2 hPa 0,0 l/m 2,3 km/h (1 Bft) W 270 0 min 2,7 C 7,8 C 3,4 km/h (1 Bft)
18.05.2021 05:10 21,6 C 7,3 C 69 % 1006,1 hPa 0,0 l/m 1,4 km/h (1 Bft) W-SW 247 0 min 2,0 C 7,3 C 0,0 km/h (0 Bft)
18.05.2021 05:00 21,6 C 7,5 C 69 % 1006,1 hPa 0,0 l/m 1,6 km/h (1 Bft) W-NW 292 0 min 2,2 C 7,5 C 2,3 km/h (1 Bft)
18.05.2021 04:50 21,7 C 7,4 C 69 % 1006,3 hPa 0,0 l/m 0,6 km/h (0 Bft) W 270 0 min 2,1 C 7,4 C 0,0 km/h (0 Bft)
18.05.2021 04:40 21,7 C 7,4 C 68 % 1006,3 hPa 0,0 l/m 0,3 km/h (0 Bft) W-SW 247 0 min 1,9 C 7,4 C 2,7 km/h (1 Bft)
18.05.2021 04:30 21,7 C 7,6 C 68 % 1006,1 hPa 0,0 l/m 1,9 km/h (1 Bft) W-SW 247 0 min 2,1 C 7,6 C 0,0 km/h (0 Bft)
18.05.2021 04:20 21,7 C 7,9 C 69 % 1006,1 hPa 0,0 l/m 3,2 km/h (1 Bft) W-SW 247 0 min 2,6 C 7,9 C 3,5 km/h (1 Bft)
18.05.2021 04:10 21,7 C 7,9 C 68 % 1006,0 hPa 0,0 l/m 3,4 km/h (1 Bft) W 270 0 min 2,4 C 7,9 C 3,2 km/h (1 Bft)
18.05.2021 04:00 21,8 C 7,9 C 68 % 1006,0 hPa 0,0 l/m 3,2 km/h (1 Bft) W-NW 292 0 min 2,4 C 7,9 C 3,1 km/h (1 Bft)
18.05.2021 03:50 21,8 C 8,0 C 67 % 1005,8 hPa 0,0 l/m 3,1 km/h (1 Bft) W-NW 292 0 min 2,3 C 8,0 C 4,8 km/h (1 Bft)
18.05.2021 03:40 21,8 C 8,2 C 67 % 1005,8 hPa 0,0 l/m 2,6 km/h (1 Bft) W 270 0 min 2,4 C 8,2 C 4,5 km/h (1 Bft)
18.05.2021 03:30 21,8 C 8,1 C 66 % 1005,6 hPa 0,0 l/m 2,6 km/h (1 Bft) W 270 0 min 2,1 C 8,1 C 4,0 km/h (1 Bft)
18.05.2021 03:20 21,8 C 8,2 C 66 % 1005,6 hPa 0,0 l/m 2,1 km/h (1 Bft) W 270 0 min 2,2 C 8,2 C 2,4 km/h (1 Bft)
18.05.2021 03:10 21,8 C 8,2 C 65 % 1005,8 hPa 0,0 l/m 2,1 km/h (1 Bft) W 270 0 min 2,0 C 8,2 C 2,3 km/h (1 Bft)
18.05.2021 03:00 21,8 C 8,3 C 65 % 1005,8 hPa 0,0 l/m 2,1 km/h (1 Bft) W 270 0 min 2,1 C 8,3 C 2,4 km/h (1 Bft)
18.05.2021 02:50 21,8 C 8,1 C 65 % 1005,6 hPa 0,0 l/m 2,1 km/h (1 Bft) S 180 0 min 1,9 C 8,1 C 8,7 km/h (2 Bft)
18.05.2021 02:40 21,8 C 8,1 C 64 % 1005,6 hPa 0,0 l/m 2,3 km/h (1 Bft) W-SW 247 0 min 1,7 C 8,1 C 8,2 km/h (2 Bft)
18.05.2021 02:30 21,8 C 8,3 C 64 % 1005,5 hPa 0,0 l/m 3,1 km/h (1 Bft) W-NW 292 0 min 1,9 C 8,3 C 3,2 km/h (1 Bft)
18.05.2021 02:20 21,9 C 8,3 C 64 % 1005,5 hPa 0,0 l/m 3,7 km/h (1 Bft) W-SW 247 0 min 1,9 C 8,3 C 7,9 km/h (2 Bft)
18.05.2021 02:10 21,9 C 8,4 C 63 % 1005,4 hPa 0,0 l/m 3,7 km/h (1 Bft) W-NW 292 0 min 1,8 C 8,4 C 5,0 km/h (1 Bft)
18.05.2021 02:00 21,9 C 8,6 C 63 % 1005,4 hPa 0,0 l/m 3,7 km/h (1 Bft) W-SW 247 0 min 2,0 C 8,6 C 7,6 km/h (2 Bft)
18.05.2021 01:50 21,9 C 8,6 C 63 % 1005,7 hPa 0,0 l/m 2,9 km/h (1 Bft) S 180 0 min 2,0 C 8,6 C 3,9 km/h (1 Bft)
18.05.2021 01:40 21,9 C 8,7 C 63 % 1005,7 hPa 0,0 l/m 2,4 km/h (1 Bft) W 270 0 min 2,1 C 8,7 C 5,1 km/h (1 Bft)
18.05.2021 01:30 22,0 C 8,7 C 62 % 1005,4 hPa 0,0 l/m 2,1 km/h (1 Bft) W 270 0 min 1,8 C 8,7 C 6,4 km/h (2 Bft)
18.05.2021 01:20 22,0 C 8,7 C 62 % 1005,4 hPa 0,0 l/m 2,4 km/h (1 Bft) W-SW 247 0 min 1,8 C 8,7 C 3,4 km/h (1 Bft)
18.05.2021 01:10 22,0 C 8,7 C 62 % 1005,4 hPa 0,0 l/m 1,8 km/h (1 Bft) W 270 0 min 1,8 C 8,7 C 4,5 km/h (1 Bft)
18.05.2021 01:00 22,0 C 8,7 C 62 % 1005,4 hPa 0,0 l/m 1,3 km/h (1 Bft) W-NW 292 0 min 1,8 C 8,7 C 1,8 km/h (1 Bft)
18.05.2021 00:50 22,0 C 8,6 C 62 % 1005,3 hPa 0,0 l/m 1,1 km/h (1 Bft) W-SW 247 0 min 1,7 C 8,6 C 0,0 km/h (0 Bft)
18.05.2021 00:40 22,0 C 8,8 C 61 % 1005,3 hPa 0,0 l/m 0,8 km/h (0 Bft) W 270 0 min 1,7 C 8,8 C 0,0 km/h (0 Bft)
18.05.2021 00:30 22,0 C 9,2 C 61 % 1005,4 hPa 0,0 l/m 2,3 km/h (1 Bft) W-SW 247 0 min 2,1 C 9,2 C 2,1 km/h (1 Bft)
18.05.2021 00:20 22,1 C 9,3 C 61 % 1005,4 hPa 0,0 l/m 2,3 km/h (1 Bft) W 270 0 min 2,2 C 9,3 C 5,8 km/h (2 Bft)
18.05.2021 00:10 22,1 C 9,3 C 59 % 1005,5 hPa 0,0 l/m 0,6 km/h (0 Bft) W-SW 247 0 min 1,7 C 9,3 C 3,4 km/h (1 Bft)
18.05.2021 00:00 22,1 C 9,3 C 59 % 1005,5 hPa 0,0 l/m 1,3 km/h (1 Bft) N-NW 337 0 min 1,7 C 9,3 C 0,0 km/h (0 Bft)
17.05.2021 23:50 22,1 C 9,4 C 59 % 1005,4 hPa 0,0 l/m 0,6 km/h (0 Bft) W 270 0 min 1,8 C 9,4 C 0,0 km/h (0 Bft)
17.05.2021 23:40 22,2 C 9,6 C 59 % 1005,4 hPa 0,0 l/m 0,8 km/h (0 Bft) W 270 0 min 2,0 C 9,6 C 0,0 km/h (0 Bft)
17.05.2021 23:30 22,2 C 9,6 C 58 % 1005,4 hPa 0,0 l/m 1,3 km/h (1 Bft) SW 225 0 min 1,8 C 9,6 C 2,7 km/h (1 Bft)
17.05.2021 23:20 22,2 C 9,9 C 58 % 1005,4 hPa 0,0 l/m 1,3 km/h (1 Bft) W-SW 247 0 min 2,0 C 9,9 C 4,0 km/h (1 Bft)
17.05.2021 23:10 22,2 C 9,9 C 58 % 1005,2 hPa 0,0 l/m 1,3 km/h (1 Bft) W 270 0 min 2,0 C 9,9 C 2,4 km/h (1 Bft)
17.05.2021 23:00 22,3 C 10,0 C 58 % 1005,2 hPa 0,0 l/m 1,4 km/h (1 Bft) W 270 0 min 2,1 C 10,0 C 4,2 km/h (1 Bft)
_ Min-Zeit 07:30 05:10 15:50 23:00 - 04:40 - - - 16:40 05:10 23:40
Minimum _ 21,4 C 7,3 C 34 % 1005,2 hPa - 0,3 km/h (0 Bft) - - - 1,5 C 7,3 C 0,0 km/h (0 Bft)
_ Max-Zeit 16:00 15:40 05:20 22:20 10:50 15:50 - - 14:50 11:50 15:40 11:30
Maximum _ 23,1 C 18,1 C 70 % 1010,7 hPa 1,4 l/m 10,6 km/h
W-SW (2 Bft)
- - 10 min 7,2 C 17,2 C 21,6 km/h
W (4 Bft)
Durchschnitt _ 22,0 C 12,0 C 56 % 1007,8 hPa #2,7 l/m 4,6 km/h (1 Bft) W - #2:00 h 3,3 C 11,8 C 6,6 km/h (2 Bft)

©39322 Markus Bahr